カタログに戻る

STARLINK-31005

運用中通信VLEO
NORAD 58486·PAYLOAD·🇺🇸 United States

打ち上げ Dec 3, 2023 から Cape Canaveral Space Force Station

Loading…

次のパス (今後24時間)

TLE

最新Source: CelesTrak SupGP

元期: Sep 14, 2026, 21:31 UTC

1 58486C 23186P   26257.89701389  .00051012  00000+0  18492-2 0  2579
2 58486  43.0002  75.2159 0001493 281.4649   9.4870 15.27526414    18

AllMySatでSTARLINK-31005をリアルタイム追跡

Download on the App Store